• In Belgium
  • List of Countries
  • For 7 days
  • Water Temperature
  • Satellite Maps
  • Weather Map
  • Weather Widgets
  • user-avatar
    Login

    Hourly Weather Imperial Beach

    Today, 21 January, Sunday

    Time Temperature Precipitation Wind Pressure Humidity
    00:00 +11°C° 0 mm 3 mps 764 mmHg 71%
    01:00 +10°C° 0 mm 2 mps 764 mmHg 71%
    02:00 +10°C° 0 mm 2 mps 764 mmHg 71%
    03:00 +10°C° 0 mm 2 mps 764 mmHg 70%
    04:00 +10°C° 0 mm 2 mps 764 mmHg 70%
    05:00 +9°C° 0 mm 2 mps 764 mmHg 68%
    06:00 +9°C° 0 mm 2 mps 765 mmHg 65%
    07:00 +9°C° 0 mm 2 mps 765 mmHg 63%
    08:00 +12°C° 0 mm 2 mps 765 mmHg 55%
    09:00 +14°C° 0 mm 1 mps 766 mmHg 48%
    10:00 +16°C° 0 mm 1 mps 766 mmHg 40%
    11:00 +16°C° 0 mm 1 mps 766 mmHg 38%
    12:00 +18°C° 0 mm 1 mps 765 mmHg 36%
    13:00 +19°C° 0 mm 1 mps 765 mmHg 34%
    14:00 +18°C° 0 mm 2 mps 765 mmHg 36%
    15:00 +17°C° 0 mm 2 mps 765 mmHg 38%
    16:00 +17°C° 0 mm 2 mps 765 mmHg 40%
    17:00 +16°C° 0 mm 2 mps 765 mmHg 45%
    18:00 +15°C° 0 mm 2 mps 765 mmHg 49%
    19:00 +14°C° 0 mm 2 mps 765 mmHg 54%
    20:00 +14°C° 0 mm 2 mps 765 mmHg 52%
    21:00 +14°C° 0 mm 2 mps 765 mmHg 50%
    22:00 +14°C° 0 mm 2 mps 765 mmHg 47%
    23:00 +14°C° 0 mm 2 mps 765 mmHg 46%

    Tomorrow, 22 January, Monday

    Time Temperature Precipitation Wind Pressure Humidity
    00:00 +13°C° 0 mm 3 mps 765 mmHg 44%
    01:00 +12°C° 0 mm 3 mps 765 mmHg 42%
    02:00 +12°C° 0 mm 3 mps 765 mmHg 39%
    03:00 +12°C° 0 mm 3 mps 765 mmHg 37%
    04:00 +12°C° 0 mm 3 mps 764 mmHg 34%
    05:00 +12°C° 0 mm 3 mps 765 mmHg 33%
    06:00 +12°C° 0 mm 3 mps 765 mmHg 32%
    07:00 +12°C° 0 mm 3 mps 765 mmHg 31%
    08:00 +14°C° 0 mm 3 mps 765 mmHg 28%
    09:00 +17°C° 0 mm 3 mps 765 mmHg 25%
    10:00 +18°C° 0 mm 3 mps 765 mmHg 22%
    11:00 +19°C° 0 mm 3 mps 765 mmHg 22%
    12:00 +20°C° 0 mm 3 mps 764 mmHg 21%
    13:00 +21°C° 0 mm 4 mps 763 mmHg 20%
    14:00 +20°C° 0 mm 4 mps 763 mmHg 22%
    15:00 +20°C° 0 mm 4 mps 763 mmHg 23%
    16:00 +20°C° 0 mm 5 mps 762 mmHg 25%
    17:00 +19°C° 0 mm 4 mps 762 mmHg 28%
    18:00 +17°C° 0 mm 4 mps 763 mmHg 30%
    19:00 +15°C° 0 mm 4 mps 763 mmHg 33%
    20:00 +15°C° 0 mm 4 mps 763 mmHg 32%
    21:00 +14°C° 0 mm 3 mps 763 mmHg 31%
    22:00 +14°C° 0 mm 3 mps 763 mmHg 30%
    23:00 +14°C° 0 mm 3 mps 763 mmHg 29%

    Day after tomorrow, 23 January, Tuesday

    Time Temperature Precipitation Wind Pressure Humidity
    00:00 +14°C° 0 mm 3 mps 763 mmHg 28%
    01:00 +13°C° 0 mm 3 mps 762 mmHg 28%
    02:00 +13°C° 0 mm 3 mps 762 mmHg 27%
    03:00 +13°C° 0 mm 3 mps 762 mmHg 26%
    04:00 +13°C° 0 mm 3 mps 762 mmHg 25%
    05:00 +13°C° 0 mm 3 mps 762 mmHg 26%
    06:00 +13°C° 0 mm 3 mps 762 mmHg 26%
    07:00 +13°C° 0 mm 3 mps 762 mmHg 27%
    08:00 +16°C° 0 mm 3 mps 762 mmHg 25%
    09:00 +19°C° 0 mm 3 mps 763 mmHg 24%
    10:00 +21°C° 0 mm 3 mps 763 mmHg 22%
    11:00 +22°C° 0 mm 3 mps 762 mmHg 21%
    12:00 +23°C° 0 mm 4 mps 762 mmHg 20%
    13:00 +25°C° 0 mm 4 mps 761 mmHg 19%
    14:00 +23°C° 0 mm 4 mps 761 mmHg 21%
    15:00 +23°C° 0 mm 5 mps 761 mmHg 23%
    16:00 +23°C° 0 mm 5 mps 760 mmHg 24%
    17:00 +21°C° 0 mm 4 mps 761 mmHg 27%
    18:00 +20°C° 0 mm 4 mps 761 mmHg 29%
    19:00 +18°C° 0 mm 4 mps 762 mmHg 32%
    20:00 +18°C° 0 mm 3 mps 762 mmHg 30%
    21:00 +17°C° 0 mm 3 mps 762 mmHg 29%
    22:00 +17°C° 0 mm 3 mps 762 mmHg 28%
    23:00 +17°C° 0 mm 3 mps 762 mmHg 27%

    24 January, Wednesday

    Time Temperature Precipitation Wind Pressure Humidity
    00:00 +17°C° 0 mm 3 mps 762 mmHg 27%
    01:00 +16°C° 0 mm 3 mps 761 mmHg 26%
    02:00 +16°C° 0 mm 3 mps 761 mmHg 26%
    03:00 +16°C° 0 mm 2 mps 761 mmHg 26%
    04:00 +16°C° 0 mm 2 mps 761 mmHg 25%
    05:00 +16°C° 0 mm 2 mps 761 mmHg 25%
    06:00 +15°C° 0 mm 2 mps 761 mmHg 26%
    07:00 +15°C° 0 mm 2 mps 762 mmHg 26%
    08:00 +18°C° 0 mm 2 mps 762 mmHg 24%
    09:00 +21°C° 0 mm 1 mps 762 mmHg 22%
    10:00 +23°C° 0 mm 1 mps 762 mmHg 20%
    11:00 +24°C° 0 mm 2 mps 761 mmHg 18%
    12:00 +25°C° 0 mm 2 mps 761 mmHg 17%
    13:00 +26°C° 0 mm 3 mps 760 mmHg 16%
    14:00 +25°C° 0 mm 3 mps 760 mmHg 18%
    15:00 +24°C° 0 mm 3 mps 760 mmHg 20%
    16:00 +22°C° 0 mm 3 mps 759 mmHg 22%
    17:00 +21°C° 0 mm 3 mps 760 mmHg 27%
    18:00 +19°C° 0 mm 3 mps 760 mmHg 32%
    19:00 +17°C° 0 mm 3 mps 760 mmHg 37%
    20:00 +17°C° 0 mm 3 mps 760 mmHg 39%
    21:00 +16°C° 0 mm 3 mps 760 mmHg 41%
    22:00 +14°C° 0 mm 3 mps 760 mmHg 43%
    23:00 +14°C° 0 mm 3 mps 760 mmHg 49%

    25 January, Thursday

    Time Temperature Precipitation Wind Pressure Humidity
    00:00 +13°C° 0 mm 4 mps 760 mmHg 54%
    01:00 +13°C° 0 mm 4 mps 760 mmHg 59%
    02:00 +13°C° 0 mm 4 mps 760 mmHg 63%
    03:00 +12°C° 0 mm 4 mps 759 mmHg 66%
    04:00 +12°C° 0 mm 4 mps 759 mmHg 69%
    05:00 +12°C° 0 mm 4 mps 760 mmHg 72%
    06:00 +12°C° 0 mm 4 mps 760 mmHg 75%
    07:00 +12°C° 0 mm 4 mps 760 mmHg 78%
    08:00 +12°C° 0.1 mm 5 mps 760 mmHg 78%
    09:00 +13°C° 0.1 mm 6 mps 761 mmHg 79%
    10:00 +12°C° 0.1 mm 7 mps 761 mmHg 80%
    11:00 +13°C° 0 mm 8 mps 761 mmHg 70%
    12:00 +13°C° 0 mm 8 mps 760 mmHg 61%
    13:00 +15°C° 0 mm 8 mps 760 mmHg 52%
    14:00 +13°C° 0 mm 9 mps 760 mmHg 52%
    15:00 +13°C° 0 mm 9 mps 760 mmHg 52%
    16:00 +13°C° 0 mm 9 mps 760 mmHg 52%
    17:00 +12°C° 0 mm 9 mps 761 mmHg 58%
    18:00 +11°C° 0 mm 8 mps 761 mmHg 64%
    19:00 +11°C° 0 mm 8 mps 762 mmHg 71%
    20:00 +11°C° 0 mm 7 mps 762 mmHg 72%
    21:00 +11°C° 0 mm 7 mps 762 mmHg 73%
    22:00 +11°C° 0 mm 6 mps 762 mmHg 74%
    23:00 +12°C° 0 mm 5 mps 762 mmHg 74%

    26 January, Friday

    Time Temperature Precipitation Wind Pressure Humidity
    00:00 +10°C° 0 mm 5 mps 762 mmHg 75%
    01:00 +11°C° 0 mm 4 mps 762 mmHg 76%
    02:00 +11°C° 0 mm 4 mps 762 mmHg 76%
    03:00 +10°C° 0 mm 3 mps 762 mmHg 76%
    04:00 +10°C° 0 mm 3 mps 763 mmHg 76%
    05:00 +10°C° 0 mm 3 mps 763 mmHg 76%
    06:00 +9°C° 0 mm 2 mps 763 mmHg 76%
    07:00 +9°C° 0 mm 2 mps 763 mmHg 76%
    08:00 +12°C° 0 mm 2 mps 764 mmHg 66%
    09:00 +13°C° 0 mm 2 mps 764 mmHg 55%
    10:00 +15°C° 0 mm 1 mps 764 mmHg 45%
    11:00 +16°C° 0 mm 2 mps 763 mmHg 42%
    12:00 +17°C° 0 mm 3 mps 763 mmHg 38%
    13:00 +17°C° 0 mm 3 mps 762 mmHg 35%
    14:00 +17°C° 0 mm 3 mps 762 mmHg 35%
    15:00 +17°C° 0 mm 4 mps 762 mmHg 35%
    16:00 +17°C° 0 mm 4 mps 762 mmHg 36%
    17:00 +15°C° 0 mm 4 mps 762 mmHg 39%
    18:00 +14°C° 0 mm 4 mps 763 mmHg 43%
    19:00 +13°C° 0 mm 4 mps 763 mmHg 46%
    20:00 +13°C° 0 mm 4 mps 763 mmHg 45%
    21:00 +13°C° 0 mm 3 mps 764 mmHg 45%
    22:00 +13°C° 0 mm 3 mps 764 mmHg 44%
    23:00 +12°C° 0 mm 3 mps 764 mmHg 40%
    Show more